This demonstration page uses our WeatherBlox Daily Observations layout. Learn more.

Left ArrowRight Arrow

Hourly Observations for October 15, 2021

Temp ( °F °C ) Dew Point ( °F °C ) Humidity (%) Winds ( mph kmh ) Pressure ( in mb ) Visibility ( mi km ) Precip ( " mm )
12:53 am 00:53 Clear 67 19.4 65 18.3 93 93 Calm 29.98 1015 10 16 0.00 0.00
1:53 am 01:53 Clear 65 18.3 63 17.2 93 93 Calm 29.98 1015 10 16 0.00 0.00
2:53 am 02:53 Clear 64 17.8 62 16.7 93 93 Calm 29.98 1015 8 13 0.00 0.00
3:30 am 03:30 Mostly Clear 63 17.2 62 16.7 97 97 Calm 29.98 1015 10 16 0.00 0.00
3:53 am 03:53 Partly Cloudy with Mist and Fog 63 17.2 62 16.7 97 97 Calm 29.97 1015 6 10 0.00 0.00
3:59 am 03:59 Partly Cloudy with Mist and Fog 63 17.2 62 16.7 97 97 Calm 29.98 1015 2 2 0.00 0.00
4:04 am 04:04 Mostly Cloudy with Mist and Fog 62 16.7 61 16.1 96 96 Calm 29.98 1015 1 2 0.00 0.00
4:11 am 04:11 Partly Cloudy with Mist and Fog 62 16.7 61 16.1 96 96 Calm 29.98 1015 3 5 0.00 0.00
4:53 am 04:53 Clear 61 16.1 60 15.6 97 97 Calm 29.97 1015 10 16 0.00 0.00
5:17 am 05:17 Clear with Mist and Fog 61 16.1 60 15.6 97 97 Calm 29.97 1015 2 3 0.00 0.00
5:22 am 05:22 Clear with Fog 61 16.1 60 15.6 97 97 Calm 29.97 1015 1 1 0.00 0.00
5:31 am 05:31 Mostly Cloudy with Mist and Fog 61 16.1 59 15 93 93 Calm 29.97 1015 1 1 0.00 0.00
5:34 am 05:34 Mostly Clear with Mist and Fog 60 15.6 59 15 96 96 Calm 29.97 1015 2 2 0.00 0.00
5:36 am 05:36 Clear with Mist and Fog 60 15.6 59 15 96 96 Calm 29.97 1015 3 5 0.00 0.00
5:53 am 05:53 Mostly Clear 61 16.1 60 15.6 97 97 Calm 29.96 1015 7 11 0.00 0.00
6:18 am 06:18 Mostly Cloudy with Mist and Fog 60 15.6 59 15 96 96 Calm 29.98 1015 3 5 0.00 0.00
6:53 am 06:53 Mostly Cloudy 61 16.1 60 15.6 97 97 Calm 29.98 1015 10 16 0.00 0.00
7:01 am 07:01 Cloudy with Mist and Fog 61 16.1 60 15.6 97 97 Calm 29.99 1016 2 3 0.00 0.00
7:15 am 07:15 Cloudy with Light Rain 62 16.7 61 16.1 96 96 Calm 29.99 1016 2 3 0.00 0.00
7:53 am 07:53 Cloudy with Light Rain 60 15.6 59 15 96 96 Calm 29.98 1015 2 3 0.00 0.00
8:00 am 08:00 Mostly Cloudy with Fog 60 15.6 60 15.6 100 100 Calm 29.99 1016 0 0 0.00 0.00
8:12 am 08:12 Mostly Cloudy with Fog 61 16.1 61 16.1 100 100 Calm 29.99 1016 N/A 0.00 0.00
8:34 am 08:34 Mostly Cloudy with Light Rain 61 16.1 61 16.1 100 100 WNW 3 6 30.00 1016 0 0 0.00 0.00
8:42 am 08:42 Mostly Cloudy with Light Rain 61 16.1 61 16.1 100 100 Calm 30.00 1016 N/A 0.00 0.00
8:53 am 08:53 Mostly Cloudy with Light Rain 62 16.7 62 16.7 100 100 Calm 30.00 1016 0 0 0.00 0.00
9:00 am 09:00 Mostly Cloudy with Light Rain 62 16.7 62 16.7 100 100 Calm 30.00 1016 1 1 0.00 0.00
9:07 am 09:07 Mostly Cloudy 63 17.2 63 17.2 100 100 WNW 3 6 30.00 1016 10 16 0.00 0.00
9:53 am 09:53 Mostly Cloudy with Mist and Fog 65 18.3 65 18.3 100 100 Calm 30.01 1016 10 16 0.00 0.00
10:02 am 10:02 Sunny 66 18.9 66 18.9 100 100 Calm 30.02 1017 10 16 0.00 0.00
10:53 am 10:53 Sunny 73 22.8 65 18.3 76 76 SSW 6 9 30.01 1016 10 16 0.00 0.00
11:53 am 11:53 Sunny 77 25 64 17.8 64 64 SSW 7 11 30.01 1016 10 16 0.00 0.00
12:53 pm 12:53 Partly Cloudy 79 26.1 65 18.3 62 62 Calm 29.99 1016 10 16 0.00 0.00
1:53 pm 13:53 Mostly Sunny 81 27.2 63 17.2 54 54 VRB 5 7 29.97 1015 10 16 0.00 0.00
2:53 pm 14:53 Mostly Sunny 83 28.3 63 17.2 51 51 Calm 29.94 1014 10 16 0.00 0.00
3:53 pm 15:53 Sunny 82 27.8 63 17.2 53 53 WNW 5 7 29.93 1014 10 16 0.00 0.00
4:53 pm 16:53 Mostly Cloudy 83 28.3 62 16.7 49 49 WSW 6 9 29.92 1013 10 16 0.00 0.00
5:53 pm 17:53 Sunny 83 28.3 63 17.2 51 51 S 6 9 29.92 1013 10 16 0.00 0.00
6:53 pm 18:53 Sunny 80 26.7 64 17.8 58 58 SSW 3 6 29.92 1013 10 16 0.00 0.00
7:53 pm 19:53 Clear 73 22.8 66 18.9 79 79 Calm 29.92 1013 10 16 0.00 0.00
8:53 pm 20:53 Clear 74 23.3 66 18.9 76 76 WSW 5 7 29.93 1013 10 16 0.00 0.00
9:53 pm 21:53 Clear 72 22.2 66 18.9 82 82 Calm 29.92 1013 10 16 0.00 0.00
10:53 pm 22:53 Clear 67 19.4 64 17.8 91 91 Calm 29.92 1013 10 16 0.00 0.00
11:53 pm 23:53 Clear 69 20.6 65 18.3 87 87 Calm 29.92 1013 10 16 0.00 0.00

Powered by AerisWeather